sat.trackr.live / text

‹ back to catalog

STARLINK-36852

NORAD 67933 · 2026-037B

PAYLOAD ACTIVE UNKNOWN

§ Identity

Operator
Country
US
Launch date
2026-02-24
Launch site
AFETR
Launch vehicle
Mass (kg)
RCS (m²)

Purposes: comms

External: N2YO · Heavens-Above · Gunter

§ Orbital elements

Epoch: 2026-05-24T23:27:58.745664Z

Period
94.27 min
Inclination
43.0046°
Eccentricity
0.0002085
Mean motion
15.27592518 rev/d
Perigee alt
481.6 km
Apogee alt
484.4 km
Semi-major
6,861.1 km
B*
5.4082e-4
RAAN
120.2872°
Arg perigee
266.9809°
Mean anomaly
93.0804°
Rev number
1,500

§ Raw data

STARLINK-368521 67933U 26037B   26144.97776326  .00014655  00000+0  54082-3 0  99922 67933  43.0046 120.2872 0002085 266.9809  93.0804 15.27592518 15009

JSON: /api/v1/satellites/67933 · /tle

For live sub-satellite position, see the globe view (requires WebGL).

§ Visibility from observer

Set your observer location to see the next 7 days of passes ≥ 10°. The values pass through the URL so the page stays shareable.

No JS? Fill the form by hand. The geolocation button needs JavaScript.